Regional Weather Roundup
Issued by NWS Newport/Morehead, NC

Current Version | Previous Version | Graphics & Text | Print | Product List | Glossary On
Versions: 1 2 3 4 5 6 7 8 9 10 11 12 13 14 15 16 17 18 19 20 21 22 23 24 25 26 27 28 29 30 31 32 33 34 35 36 37 38 39 40 41 42 43 44 45 46 47 48 49 50
000 ASUS42 KMHX 270022 RWRMHX WEATHER ROUNDUP FOR EASTERN NORTH CAROLINA NATIONAL WEATHER SERVICE NEWPORT/MOREHEAD CITY NC 700 PM EST WED NOV 26 2014 NOTE: "FAIR" INDICATES FEW OR NO CLOUDS BELOW 12,000 FEET WITH NO SIGNIFICANT WEATHER AND/OR OBSTRUCTIONS TO VISIBILITY NCZ015>017-031-032-045>047-102-103-270100- NORTH COAST CITY SKY/WX TMP DP RH WIND PRES REMARKS EDENTON CLOUDY 42 38 88 NW12G18 29.98R ELIZABETH CITY CLOUDY 44 38 79 NW13G22 29.94R KITTY HAWK CLOUDY 42 40 92 NW17G25 29.91R MANTEO CLOUDY 42 38 86 NW14G24 29.94R $$ NCZ045>047-081-094-103-104-270100- CENTRAL COAST CITY SKY/WX TMP DP RH WIND PRES REMARKS FRISCO CLOUDY 46 44 93 NW15G30 29.94R SWANQUARTER N/A 45 N/A N/A NW9G21 29.94R $$ NCZ095-097-098-100-101-270100- SOUTHERN COAST CITY SKY/WX TMP DP RH WIND PRES REMARKS BEAUFORT CLOUDY 48 44 86 W15 30.00R CEDAR ISLAND N/A 46 N/A N/A W14G29 30.03R JACKSONVILLE CLOUDY 47 43 86 W8 30.03R PINEY ISLAND CLOUDY 49 42 77 NW20G28 29.98R WILMINGTON CLOUDY 49 43 80 NW15 30.05R $$ NCZ011>013-027>030-043-044-078>080-089-090>093-098-270100- COASTAL PLAIN CITY SKY/WX TMP DP RH WIND PRES REMARKS AHOSKIE CLOUDY 38 37 93 CALM 30.00R CLINTON CLOUDY 44 42 93 CALM 30.06R ELIZABETHTOWN CLEAR 45 43 92 CALM 30.07R GOLDSBORO MOCLDY 43 43 100 W5 30.03R GREENVILLE CLOUDY 41 39 93 NW3 30.03R HAVELOCK CLOUDY 47 41 80 NW16 30.04R KENANSVILLE CLOUDY 44 40 85 NW6 30.06R KINSTON CLOUDY 43 41 93 W3 30.04R NEW BERN MOCLDY 47 41 80 NW10 30.02R RICHLANDS CLOUDY 45 39 81 W6 30.05R ROCKY MOUNT MOCLDY 41 37 86 W5 30.04R WASHINGTON CLOUDY 42 38 87 NW6 30.01R WHITEVILLE CLOUDY 48 45 87 CALM 30.06R $$ AMZ130-135-150-152-154-156-158-170-250-252-270-ANZ085-086-088-633-658-670-270100- MARINE OBSERVATIONS STATION/POSITION TIME TEMP WIND PRES WAVE SWELL AIR SEA DIR/SP/G HT/PER HT/PER (UTC) (F) (DEG/KT/KT) (MB) (FT/S) (FT/S) CHESAPEAKE LIGHT 0000 42 320/ 31/ 34 1012.6 64 E VA BEACH 0000 49 62 310/ 29/ 33 1008.5 11/ 9 DUCK 0000 42 56 310/ 18/ 25 1012.2 2 E DUCK 0000 58 N/A 6/ 8 2/11 10 NE DUCK 0000 59 N/A 9/ 8 2/11 OREGON INLET 0000 44 59 290/ 17/ 23 1013.2 13E OREGON INLT 0000 63 N/A 10/ 8 2/11 HATTERAS CG 0000 49 62 300/ 24/ 28 1014.3 DIAMOND BUOY 0000 51 300/ 21/ 25 1013.0 10/ 9 7/ 9 17 S OCRACOKE NOT AVBL CAPE LOOKOUT 0000 49 290/ 17/ 22 1015.7 BEAUFORT LAB 0000 48 59 310/ 11/ 19 1015.1 30 SE NEW RIVER 0000 53 66 300/ 21/ 25 1016.3 7/ 5 5 SE WRIGHTSVLE 0000 48 59 310/ 17/ 21 1016.5 225 S CAPE HAT NOT AVBL 41 SE CHARLESTON 0000 59 74 300/ 14/ 17 1018.2 5/ 9 3/ 9 $$

USA.gov is the U.S. government's official web portal to all federal, state and local government web resources and services.